Location: La Mesa
(32.7678°N, 117.0231°W)
Time: 10:08:58
(UTC+00:00)

Daily predictions for brighter satellites

Satellite Brightness Start Highest point End
(mag) Time Altitude Azimuth Time Altitude Azimuth Time Altitude Azimuth
H-2A R/B 2.3 12:01:25 19° S 12:02:29 24° SSE 12:07:03 10° E
IDEFIX/ARIANE 42P 4.5 12:01:41 10° NW 12:03:40 12° WNW 12:04:30 12° WNW
SL-08 R/B 4.3 12:02:14 20° SW 12:04:27 27° W 12:08:35 10° NW
Cosmos 2369 Rocket 3.3 12:03:22 19° W 12:05:45 25° WNW 12:10:20 10° N
Cosmos 1125 Rocket 4.3 12:06:11 20° WSW 12:09:07 34° WNW 12:13:54 10° N
SL-27 R/B 3.8 12:06:46 10° N 12:09:53 40° ENE 12:13:00 10° SE
IUS-18 SRM-1 3.7 12:09:48 20° WSW 12:12:22 54° SSE 12:25:33 10° E
Okean 1 Rocket 3.2 12:08:57 10° NNW 12:13:18 54° W 12:17:36 10° S
Cosmos 1674 3.7 12:11:08 10° SSE 12:14:45 48° E 12:18:26 10° NNE
ISS -1.0 12:13:13 10° SSE 12:15:06 14° SE 12:16:58 10° E
Centaur D AC-25 3.8 12:14:22 14° W 12:18:11 23° SW 12:21:17 10° SSE
In-Cosmos 22 4.3 12:15:07 10° S 12:20:52 84° W 12:26:40 10° N
Cosmos 1470 2.9 12:19:29 10° NNW 12:23:12 48° W 12:26:55 10° SSW
SL-4 R/B 2.9 12:19:16 10° WNW 12:23:36 34° SW 12:27:48 10° SSE
Cosmos 1707 3.5 12:26:03 10° SW 12:29:31 31° W 12:32:58 10° NNW
Cosmos 1626 3.6 12:31:37 10° SSE 12:35:06 41° E 12:38:36 10° NNE
ASTRO E2 2.8 12:31:33 10° W 12:35:24 58° S 12:39:18 10° ESE
DELTA 2 R/B (1) 3.9 12:30:04 10° WNW 12:35:38 72° NNE 12:41:12 10° ESE
Meteor 2-11 Rocket 4.4 12:30:57 10° N 12:37:05 76° W 12:43:12 10° S
FENGYUN 3A 4.2 12:33:37 10° N 12:38:35 39° WNW 12:43:31 10° SW
RESURS DK-1 4.1 12:36:02 10° N 12:39:56 38° ENE 12:43:49 10° SE
Cosmos 1400 Rocket 3.7 12:36:54 10° NNW 12:40:31 30° W 12:44:07 10° SSW
Cosmos 1726 2.8 12:37:41 10° NNW 12:41:02 32° W 12:44:22 10° SSW
Cosmos 1725 Rocket 4.1 12:36:18 10° N 12:42:38 85° W 12:48:53 10° S
KORONAS-FOTON 3.8 12:41:23 10° SSW 12:45:09 60° W 12:48:59 10° N
Iridium 2 3.6 12:43:04 10° S 12:46:48 88° W 12:50:35 10° N
Cosmos 1802 Rocket 4.2 12:43:53 10° NNW 12:49:51 50° W 12:55:43 10° SSW
COSMO-SKYMED 1 4.0 12:45:54 10° SSE 12:50:01 46° ENE 12:54:10 10° N
